Terminal Aerodrome Forecast
Issued by NWS Grand Forks, ND

Home | Current Version | Previous Version | Graphics & Text | Print | Product List | Glossary On
Versions: 1 2 3 4 5 6 7 8 9 10 11 12 13 14 15 16 17
000
FTUS43 KFGF 301012 AAA
TAFGFK
TAF AMD
KGFK 301012Z 3010/0106 31005KT 4SM BR SCT080 BKN200
     FM301400 31007KT P6SM SCT080 BKN200
     FM010000 05007KT P6SM BKN100=

USA.gov is the U.S. government's official web portal to all federal, state and local government web resources and services.